Madrid Cuatro Vientos, Spain

2:48 AM CEST on May 23, 2017 (GMT +0200)
Madrid Cuatro Vientos

Weather History for LEVS - April, 2013

Change the Weather History Date:

Monday, April 8, 2013

  Actual Average Record
Temperature  
Mean Temperature 52 °F -  
Max Temperature 57 °F 64 °F 82 °F (2011)
Min Temperature 46 °F 45 °F 33 °F (2009)
Degree Days  
Heating Degree Days 14    
Growing Degree Days 2 (Base 50)    
Moisture  
Dew Point 40 °F    
Average Humidity 66    
Maximum Humidity 100    
Minimum Humidity 47    
Precipitation  
Precipitation 0.00 in - - ()
Sea Level Pressure  
Sea Level Pressure 29.90 in    
Wind  
Wind Speed 9 mph ()    
Max Wind Speed 17 mph    
Max Gust Speed -    
Visibility 6.2 miles    
Events      
Averages and records for this station are not official NWS values.
T = Trace of Precipitation, MM = Missing Value Source: Averaged Metar Reports

Daily Weather History Graph

Daily Weather History Graph

Search for Another Location

Airport or City:

Trip Planner

Search our weather history database for the weather conditions in past years. The results will help you decide how hot, cold, wet, or windy it might be!

Date:

Astronomy

Apr. 08, 2013 Rise Set
Actual Time 7:47 AM CEST 8:46 PM CEST
Civil Twilight 7:19 AM CEST 9:14 PM CEST
Nautical Twilight 6:46 AM CEST 9:47 PM CEST
Astronomical Twilight 6:12 AM CEST 10:22 PM CEST
Moon 6:30 AM CEST (4/8) 7:06 PM CEST (4/8)
Length of Visible Light 13h 54m
Length of Day
12h 59m
Waning Crescent, 4% of the Moon is Illuminated
Apr 8
Waning Crescent
Apr 10
New
Apr 18
First Quarter
Apr 25
Full
May 2
Last Quarter

Hourly Weather History & Observations

Time (CEST) Temp. Windchill Dew Point Humidity Pressure Visibility Wind Dir Wind Speed Gust Speed Precip Events Conditions
7:00 AM 46.4 °F 42.4 °F 46.4 °F 100% 29.89 in 5.0 mi West 8.1 mph - N/A   Mostly Cloudy
7:30 AM 46.4 °F 42.9 °F 46.4 °F 100% 29.86 in 6.2 mi WSW 6.9 mph - N/A   Light Drizzle
8:00 AM 46.4 °F 43.5 °F 46.4 °F 100% 29.89 in 6.2 mi WSW 5.8 mph - N/A   Mostly Cloudy
8:30 AM 46.4 °F 45.2 °F 46.4 °F 100% 29.89 in 6.2 mi WSW 3.5 mph - N/A   Mostly Cloudy
9:00 AM 46.4 °F 45.2 °F 46.4 °F 100% 29.89 in 6.2 mi West 3.5 mph - N/A   Mostly Cloudy
9:30 AM 46.4 °F 45.2 °F 46.4 °F 100% 29.89 in 6.2 mi West 3.5 mph - N/A   Mostly Cloudy
10:00 AM 48.2 °F - 42.8 °F 82% 29.89 in 6.2 mi West 4.6 mph - N/A   Mostly Cloudy
10:30 AM 48.2 °F - 42.8 °F 82% 29.92 in 6.2 mi West 6.9 mph - N/A   Mostly Cloudy
11:00 AM 50.0 °F - 39.2 °F 66% 29.92 in 6.2 mi Variable 8.1 mph - N/A   Scattered Clouds
11:30 AM 51.8 °F - 35.6 °F 54% 29.92 in 6.2 mi West 10.4 mph - N/A   Scattered Clouds
12:00 PM 53.6 °F - 33.8 °F 47% 29.92 in 6.2 mi WNW 12.7 mph - N/A   Scattered Clouds
12:30 PM 51.8 °F - 33.8 °F 50% 29.92 in 6.2 mi West 11.5 mph - N/A   Scattered Clouds
1:00 PM 53.6 °F - 33.8 °F 47% 29.92 in 6.2 mi West 10.4 mph - N/A   Scattered Clouds
1:30 PM 55.4 °F - 35.6 °F 47% 29.92 in 6.2 mi Variable 10.4 mph - N/A   Scattered Clouds
2:00 PM 57.2 °F - 37.4 °F 48% 29.92 in 6.2 mi WSW 10.4 mph - N/A   Scattered Clouds
2:30 PM 55.4 °F - 37.4 °F 51% 29.92 in 6.2 mi SW 9.2 mph - N/A   Scattered Clouds
3:00 PM 57.2 °F - 37.4 °F 48% 29.92 in 6.2 mi WSW 10.4 mph - N/A   Scattered Clouds
3:30 PM 57.2 °F - 39.2 °F 51% 29.92 in 6.2 mi WSW 12.7 mph - N/A   Scattered Clouds
4:00 PM 55.4 °F - 39.2 °F 54% 29.92 in 6.2 mi SSW 12.7 mph - N/A   Scattered Clouds
4:30 PM 57.2 °F - 39.2 °F 51% 29.89 in 6.2 mi SSW 13.8 mph - N/A   Scattered Clouds
5:00 PM 55.4 °F - 39.2 °F 54% 29.89 in 6.2 mi SSW 12.7 mph - N/A   Scattered Clouds
5:30 PM 55.4 °F - 39.2 °F 54% 29.89 in 6.2 mi SSW 13.8 mph - N/A   Partly Cloudy
6:00 PM 55.4 °F - 39.2 °F 54% 29.89 in 6.2 mi SSW 13.8 mph - N/A   Partly Cloudy
6:30 PM 55.4 °F - 39.2 °F 54% 29.89 in 6.2 mi SSW 15.0 mph - N/A   Partly Cloudy
7:00 PM 55.4 °F - 39.2 °F 54% 29.89 in 6.2 mi SW 16.1 mph - N/A   Partly Cloudy
7:30 PM 53.6 °F - 39.2 °F 58% 29.89 in 6.2 mi SW 16.1 mph - N/A   Partly Cloudy
8:00 PM 51.8 °F - 39.2 °F 62% 29.89 in - SW 13.8 mph - N/A   Clear
8:30 PM 51.8 °F - 39.2 °F 62% 29.89 in - SW 12.7 mph - N/A   Clear
9:00 PM 50.0 °F - 39.2 °F 66% 29.89 in - SW 13.8 mph - N/A   Clear
9:30 PM 48.2 °F - 39.2 °F 71% 29.89 in - WSW 11.5 mph - N/A   Clear
10:00 PM 50.0 °F - 39.2 °F 66% 29.89 in - WSW 17.3 mph - N/A   Clear
10:30 PM 48.2 °F - 39.2 °F 71% 29.92 in - WSW 11.5 mph - N/A   Clear
11:00 PM 48.2 °F - 39.2 °F 71% 29.92 in - WSW 15.0 mph - N/A   Clear